sat.trackr.live / text

‹ back to catalog

STARLINK-31036

NORAD 58533 · 2023-192C

PAYLOAD ACTIVE UNKNOWN

§ Identity

Operator
Country
US
Launch date
2023-12-08
Launch site
AFWTR
Launch vehicle
Mass (kg)
RCS (m²)

Purposes: comms

External: N2YO · Heavens-Above · Gunter

§ Orbital elements

Epoch: 2026-05-25T02:27:47.534400Z

Period
93.85 min
Inclination
53.1626°
Eccentricity
0.0001260
Mean motion
15.34388222 rev/d
Perigee alt
461.9 km
Apogee alt
463.6 km
Semi-major
6,840.9 km
B*
2.0601e-5
RAAN
67.1994°
Arg perigee
91.9671°
Mean anomaly
268.1476°
Rev number
13,769

§ Raw data

STARLINK-310361 58533U 23192C   26145.10263350  .00000320  00000+0  20601-4 0  99962 58533  53.1626  67.1994 0001260  91.9671 268.1476 15.34388222137695

JSON: /api/v1/satellites/58533 · /tle

For live sub-satellite position, see the globe view (requires WebGL).

§ Visibility from observer

Set your observer location to see the next 7 days of passes ≥ 10°. The values pass through the URL so the page stays shareable.

No JS? Fill the form by hand. The geolocation button needs JavaScript.